owner,sensor,date,latitude,longitude,sea_water_turbidity,qcFlag 
SCCF RECON,ioos:station:SCCF:11:1,2017-11-01T04:00:00Z,26.4679,-82.0631,3.38,1111122 
SCCF RECON,ioos:station:SCCF:11:1,2017-11-01T05:00:00Z,26.4679,-82.0631,2.71,1111122 
SCCF RECON,ioos:station:SCCF:11:1,2017-11-01T06:00:00Z,26.4679,-82.0631,2.91,1111122 
SCCF RECON,ioos:station:SCCF:11:1,2017-11-01T07:00:00Z,26.4679,-82.0631,3.32,1111122 
SCCF RECON,ioos:station:SCCF:11:1,2017-11-01T08:00:00Z,26.4679,-82.0631,3.44,1111122 
SCCF RECON,ioos:station:SCCF:11:1,2017-11-01T09:00:00Z,26.4679,-82.0631,3.39,1111122 
SCCF RECON,ioos:station:SCCF:11:1,2017-11-01T10:00:00Z,26.4679,-82.0631,3.12,1111122 
SCCF RECON,ioos:station:SCCF:11:1,2017-11-01T11:00:00Z,26.4679,-82.0631,3.43,1111122 
SCCF RECON,ioos:station:SCCF:11:1,2017-11-01T12:00:00Z,26.4679,-82.0631,4.82,1111122 
SCCF RECON,ioos:station:SCCF:11:1,2017-11-01T13:00:00Z,26.4679,-82.0631,4.04,1111122 
SCCF RECON,ioos:station:SCCF:11:1,2017-11-01T14:00:00Z,26.4679,-82.0631,4.17,1111122 
SCCF RECON,ioos:station:SCCF:11:1,2017-11-01T15:00:00Z,26.4679,-82.0631,3.28,1111122 
SCCF RECON,ioos:station:SCCF:11:1,2017-11-01T16:00:00Z,26.4679,-82.0631,3.13,1111122 
SCCF RECON,ioos:station:SCCF:11:1,2017-11-01T17:00:00Z,26.4679,-82.0631,3.32,1111122 
SCCF RECON,ioos:station:SCCF:11:1,2017-11-01T18:00:00Z,26.4679,-82.0631,3.45,1111122 
SCCF RECON,ioos:station:SCCF:11:1,2017-11-01T19:00:00Z,26.4679,-82.0631,3.49,1111122 
SCCF RECON,ioos:station:SCCF:11:1,2017-11-01T20:00:00Z,26.4679,-82.0631,3.94,1111122 
SCCF RECON,ioos:station:SCCF:11:1,2017-11-01T21:00:00Z,26.4679,-82.0631,4.01,1111122 
SCCF RECON,ioos:station:SCCF:11:1,2017-11-01T22:00:00Z,26.4679,-82.0631,3.64,1111122 
SCCF RECON,ioos:station:SCCF:11:1,2017-11-02T04:00:00Z,26.4679,-82.0631,3.4,1111122 
SCCF RECON,ioos:station:SCCF:11:1,2017-11-02T05:00:00Z,26.4679,-82.0631,3.14,1111122 
SCCF RECON,ioos:station:SCCF:11:1,2017-11-02T06:00:00Z,26.4679,-82.0631,3.84,1111122 
SCCF RECON,ioos:station:SCCF:11:1,2017-11-02T07:00:00Z,26.4679,-82.0631,3.8,1111122 
SCCF RECON,ioos:station:SCCF:11:1,2017-11-02T08:00:00Z,26.4679,-82.0631,3.48,1111122 
SCCF RECON,ioos:station:SCCF:11:1,2017-11-02T09:00:00Z,26.4679,-82.0631,6.02,1111122 
SCCF RECON,ioos:station:SCCF:11:1,2017-11-02T10:00:00Z,26.4679,-82.0631,11.35,1111122 
SCCF RECON,ioos:station:SCCF:11:1,2017-11-02T11:00:00Z,26.4679,-82.0631,3.04,1111122 
SCCF RECON,ioos:station:SCCF:11:1,2017-11-02T12:00:00Z,26.4679,-82.0631,2.65,1111122 
SCCF RECON,ioos:station:SCCF:11:1,2017-11-02T13:00:00Z,26.4679,-82.0631,3.85,1111122 
SCCF RECON,ioos:station:SCCF:11:1,2017-11-02T14:00:00Z,26.4679,-82.0631,4.79,1111122 
SCCF RECON,ioos:station:SCCF:11:1,2017-11-02T15:00:00Z,26.4679,-82.0631,4.13,1111122 
SCCF RECON,ioos:station:SCCF:11:1,2017-11-02T16:00:00Z,26.4679,-82.0631,5.7,1111122 
SCCF RECON,ioos:station:SCCF:11:1,2017-11-02T17:00:00Z,26.4679,-82.0631,3.0,1111122 
SCCF RECON,ioos:station:SCCF:11:1,2017-11-02T18:00:00Z,26.4679,-82.0631,4.05,1111122 
SCCF RECON,ioos:station:SCCF:11:1,2017-11-02T19:00:00Z,26.4679,-82.0631,3.4,1111122 
SCCF RECON,ioos:station:SCCF:11:1,2017-11-02T20:00:00Z,26.4679,-82.0631,4.03,1111122 
SCCF RECON,ioos:station:SCCF:11:1,2017-11-02T21:00:00Z,26.4679,-82.0631,4.34,1111122 
SCCF RECON,ioos:station:SCCF:11:1,2017-11-02T22:00:00Z,26.4679,-82.0631,3.64,1111122 
SCCF RECON,ioos:station:SCCF:11:1,2017-11-03T04:00:00Z,26.4679,-82.0631,3.4,1111122 
SCCF RECON,ioos:station:SCCF:11:1,2017-11-03T05:00:00Z,26.4679,-82.0631,2.88,1111122 
SCCF RECON,ioos:station:SCCF:11:1,2017-11-03T06:00:00Z,26.4679,-82.0631,3.2,1111122 
SCCF RECON,ioos:station:SCCF:11:1,2017-11-03T07:00:00Z,26.4679,-82.0631,3.13,1111122 
SCCF RECON,ioos:station:SCCF:11:1,2017-11-03T08:00:00Z,26.4679,-82.0631,3.24,1111122 
SCCF RECON,ioos:station:SCCF:11:1,2017-11-03T09:00:00Z,26.4679,-82.0631,3.74,1111122 
SCCF RECON,ioos:station:SCCF:11:1,2017-11-03T10:00:00Z,26.4679,-82.0631,3.71,1111122 
SCCF RECON,ioos:station:SCCF:11:1,2017-11-03T11:00:00Z,26.4679,-82.0631,3.9,1111122 
SCCF RECON,ioos:station:SCCF:11:1,2017-11-03T12:00:00Z,26.4679,-82.0631,4.38,1111122 
SCCF RECON,ioos:station:SCCF:11:1,2017-11-03T13:00:00Z,26.4679,-82.0631,6.88,1111122 
SCCF RECON,ioos:station:SCCF:11:1,2017-11-03T14:00:00Z,26.4679,-82.0631,6.92,1111122 
SCCF RECON,ioos:station:SCCF:11:1,2017-11-03T15:00:00Z,26.4679,-82.0631,6.44,1111122 
SCCF RECON,ioos:station:SCCF:11:1,2017-11-03T16:00:00Z,26.4679,-82.0631,6.03,1111122 
SCCF RECON,ioos:station:SCCF:11:1,2017-11-03T17:00:00Z,26.4679,-82.0631,7.78,1111122 
SCCF RECON,ioos:station:SCCF:11:1,2017-11-03T18:00:00Z,26.4679,-82.0631,5.35,1111122 
SCCF RECON,ioos:station:SCCF:11:1,2017-11-03T19:00:00Z,26.4679,-82.0631,5.62,1111122 
SCCF RECON,ioos:station:SCCF:11:1,2017-11-03T20:00:00Z,26.4679,-82.0631,4.93,1111122 
SCCF RECON,ioos:station:SCCF:11:1,2017-11-03T21:00:00Z,26.4679,-82.0631,4.4,1111122 
SCCF RECON,ioos:station:SCCF:11:1,2017-11-03T22:00:00Z,26.4679,-82.0631,5.63,1111122 
SCCF RECON,ioos:station:SCCF:11:1,2017-11-04T04:00:00Z,26.4679,-82.0631,4.27,1111122 
SCCF RECON,ioos:station:SCCF:11:1,2017-11-04T05:00:00Z,26.4679,-82.0631,3.49,1111122 
SCCF RECON,ioos:station:SCCF:11:1,2017-11-04T06:00:00Z,26.4679,-82.0631,3.21,1111122 
SCCF RECON,ioos:station:SCCF:11:1,2017-11-04T07:00:00Z,26.4679,-82.0631,3.65,1111122 
SCCF RECON,ioos:station:SCCF:11:1,2017-11-04T08:00:00Z,26.4679,-82.0631,4.63,1111122 
SCCF RECON,ioos:station:SCCF:11:1,2017-11-04T09:00:00Z,26.4679,-82.0631,4.25,1111122 
SCCF RECON,ioos:station:SCCF:11:1,2017-11-04T10:00:00Z,26.4679,-82.0631,4.36,1111122 
SCCF RECON,ioos:station:SCCF:11:1,2017-11-04T11:00:00Z,26.4679,-82.0631,4.6,1111122 
SCCF RECON,ioos:station:SCCF:11:1,2017-11-04T12:00:00Z,26.4679,-82.0631,4.73,1111122 
SCCF RECON,ioos:station:SCCF:11:1,2017-11-04T13:00:00Z,26.4679,-82.0631,4.5,1111122 
SCCF RECON,ioos:station:SCCF:11:1,2017-11-04T14:00:00Z,26.4679,-82.0631,8.0,1111122 
SCCF RECON,ioos:station:SCCF:11:1,2017-11-04T15:00:00Z,26.4679,-82.0631,9.74,1111122 
SCCF RECON,ioos:station:SCCF:11:1,2017-11-04T16:00:00Z,26.4679,-82.0631,11.95,1111122 
SCCF RECON,ioos:station:SCCF:11:1,2017-11-04T17:00:00Z,26.4679,-82.0631,9.65,1111122 
SCCF RECON,ioos:station:SCCF:11:1,2017-11-04T18:00:00Z,26.4679,-82.0631,7.91,1111122 
SCCF RECON,ioos:station:SCCF:11:1,2017-11-04T19:00:00Z,26.4679,-82.0631,4.02,1111122 
SCCF RECON,ioos:station:SCCF:11:1,2017-11-04T20:00:00Z,26.4679,-82.0631,8.35,1111122 
SCCF RECON,ioos:station:SCCF:11:1,2017-11-04T21:00:00Z,26.4679,-82.0631,5.96,1111122 
SCCF RECON,ioos:station:SCCF:11:1,2017-11-04T22:00:00Z,26.4679,-82.0631,4.95,1111122 
SCCF RECON,ioos:station:SCCF:11:1,2017-11-05T04:00:00Z,26.4679,-82.0631,4.99,1111122 
SCCF RECON,ioos:station:SCCF:11:1,2017-11-05T05:00:00Z,26.4679,-82.0631,3.46,1111122 
SCCF RECON,ioos:station:SCCF:11:1,2017-11-05T06:00:00Z,26.4679,-82.0631,2.79,1111122 
SCCF RECON,ioos:station:SCCF:11:1,2017-11-05T07:00:00Z,26.4679,-82.0631,3.72,1111122 
SCCF RECON,ioos:station:SCCF:11:1,2017-11-05T08:00:00Z,26.4679,-82.0631,4.0,1111122 
SCCF RECON,ioos:station:SCCF:11:1,2017-11-05T09:00:00Z,26.4679,-82.0631,4.72,1111122 
SCCF RECON,ioos:station:SCCF:11:1,2017-11-05T10:00:00Z,26.4679,-82.0631,4.48,1111122 
SCCF RECON,ioos:station:SCCF:11:1,2017-11-05T11:00:00Z,26.4679,-82.0631,4.65,1111122 
SCCF RECON,ioos:station:SCCF:11:1,2017-11-05T12:00:00Z,26.4679,-82.0631,5.26,1111122 
SCCF RECON,ioos:station:SCCF:11:1,2017-11-05T13:00:00Z,26.4679,-82.0631,5.3,1111122 
SCCF RECON,ioos:station:SCCF:11:1,2017-11-05T14:00:00Z,26.4679,-82.0631,5.12,1111122 
SCCF RECON,ioos:station:SCCF:11:1,2017-11-05T15:00:00Z,26.4679,-82.0631,16.68,1111122 
SCCF RECON,ioos:station:SCCF:11:1,2017-11-05T16:00:00Z,26.4679,-82.0631,8.74,1111122 
SCCF RECON,ioos:station:SCCF:11:1,2017-11-05T17:00:00Z,26.4679,-82.0631,7.18,1111122 
SCCF RECON,ioos:station:SCCF:11:1,2017-11-05T18:00:00Z,26.4679,-82.0631,7.28,1111122 
SCCF RECON,ioos:station:SCCF:11:1,2017-11-05T19:00:00Z,26.4679,-82.0631,4.66,1111122 
SCCF RECON,ioos:station:SCCF:11:1,2017-11-05T20:00:00Z,26.4679,-82.0631,3.04,1111122 
SCCF RECON,ioos:station:SCCF:11:1,2017-11-05T21:00:00Z,26.4679,-82.0631,5.3,1111122 
SCCF RECON,ioos:station:SCCF:11:1,2017-11-05T22:00:00Z,26.4679,-82.0631,4.63,1111122 
SCCF RECON,ioos:station:SCCF:11:1,2017-11-06T05:00:00Z,26.4679,-82.0631,3.03,1111122 
SCCF RECON,ioos:station:SCCF:11:1,2017-11-06T06:00:00Z,26.4679,-82.0631,2.25,1111122 
SCCF RECON,ioos:station:SCCF:11:1,2017-11-06T07:00:00Z,26.4679,-82.0631,1.95,1111122 
SCCF RECON,ioos:station:SCCF:11:1,2017-11-06T08:00:00Z,26.4679,-82.0631,3.73,1111122 
SCCF RECON,ioos:station:SCCF:11:1,2017-11-06T09:00:00Z,26.4679,-82.0631,4.49,1111122 
SCCF RECON,ioos:station:SCCF:11:1,2017-11-06T10:00:00Z,26.4679,-82.0631,4.45,1111122 
SCCF RECON,ioos:station:SCCF:11:1,2017-11-06T11:00:00Z,26.4679,-82.0631,4.15,1111122 
SCCF RECON,ioos:station:SCCF:11:1,2017-11-06T12:00:00Z,26.4679,-82.0631,4.48,1111122 
SCCF RECON,ioos:station:SCCF:11:1,2017-11-06T13:00:00Z,26.4679,-82.0631,5.28,1111122 
SCCF RECON,ioos:station:SCCF:11:1,2017-11-06T14:00:00Z,26.4679,-82.0631,5.32,1111122 
SCCF RECON,ioos:station:SCCF:11:1,2017-11-06T15:00:00Z,26.4679,-82.0631,4.77,1111122 
SCCF RECON,ioos:station:SCCF:11:1,2017-11-06T16:00:00Z,26.4679,-82.0631,6.58,1111122 
SCCF RECON,ioos:station:SCCF:11:1,2017-11-06T17:00:00Z,26.4679,-82.0631,6.53,1111122 
SCCF RECON,ioos:station:SCCF:11:1,2017-11-06T18:00:00Z,26.4679,-82.0631,6.38,1111122 
SCCF RECON,ioos:station:SCCF:11:1,2017-11-06T19:00:00Z,26.4679,-82.0631,4.1,1111122 
SCCF RECON,ioos:station:SCCF:11:1,2017-11-06T20:00:00Z,26.4679,-82.0631,3.46,1111122 
SCCF RECON,ioos:station:SCCF:11:1,2017-11-06T21:00:00Z,26.4679,-82.0631,2.68,1111122 
SCCF RECON,ioos:station:SCCF:11:1,2017-11-06T22:00:00Z,26.4679,-82.0631,5.48,1111122 
SCCF RECON,ioos:station:SCCF:11:1,2017-11-07T05:00:00Z,26.4679,-82.0631,2.59,1111122 
SCCF RECON,ioos:station:SCCF:11:1,2017-11-07T06:00:00Z,26.4679,-82.0631,2.29,1111122 
SCCF RECON,ioos:station:SCCF:11:1,2017-11-07T07:00:00Z,26.4679,-82.0631,2.46,1111122 
SCCF RECON,ioos:station:SCCF:11:1,2017-11-07T08:00:00Z,26.4679,-82.0631,2.56,1111122 
SCCF RECON,ioos:station:SCCF:11:1,2017-11-07T09:00:00Z,26.4679,-82.0631,2.78,1111122 
SCCF RECON,ioos:station:SCCF:11:1,2017-11-07T10:00:00Z,26.4679,-82.0631,3.56,1111122 
SCCF RECON,ioos:station:SCCF:11:1,2017-11-07T11:00:00Z,26.4679,-82.0631,4.33,1111122 
SCCF RECON,ioos:station:SCCF:11:1,2017-11-07T12:00:00Z,26.4679,-82.0631,4.03,1111122 
SCCF RECON,ioos:station:SCCF:11:1,2017-11-07T13:00:00Z,26.4679,-82.0631,4.29,1111122 
SCCF RECON,ioos:station:SCCF:11:1,2017-11-07T14:00:00Z,26.4679,-82.0631,5.21,1111122 
SCCF RECON,ioos:station:SCCF:11:1,2017-11-07T17:00:00Z,26.4679,-82.0631,6.99,1111122 
SCCF RECON,ioos:station:SCCF:11:1,2017-11-07T19:00:00Z,26.4679,-82.0631,4.17,1111122 
SCCF RECON,ioos:station:SCCF:11:1,2017-11-07T20:00:00Z,26.4679,-82.0631,4.34,1111122 
SCCF RECON,ioos:station:SCCF:11:1,2017-11-07T22:00:00Z,26.4679,-82.0631,3.18,1111122 
SCCF RECON,ioos:station:SCCF:11:1,2017-11-07T23:00:00Z,26.4679,-82.0631,3.09,1111122 
SCCF RECON,ioos:station:SCCF:11:1,2017-11-08T06:00:00Z,26.4679,-82.0631,2.61,1111122 
SCCF RECON,ioos:station:SCCF:11:1,2017-11-08T07:00:00Z,26.4679,-82.0631,2.49,1111122 
SCCF RECON,ioos:station:SCCF:11:1,2017-11-08T08:00:00Z,26.4679,-82.0631,2.14,1111122 
SCCF RECON,ioos:station:SCCF:11:1,2017-11-08T09:00:00Z,26.4679,-82.0631,2.24,1111122 
SCCF RECON,ioos:station:SCCF:11:1,2017-11-08T10:00:00Z,26.4679,-82.0631,2.73,1111122 
SCCF RECON,ioos:station:SCCF:11:1,2017-11-08T11:00:00Z,26.4679,-82.0631,3.69,1111122 
SCCF RECON,ioos:station:SCCF:11:1,2017-11-08T12:00:00Z,26.4679,-82.0631,4.06,1111122 
SCCF RECON,ioos:station:SCCF:11:1,2017-11-08T13:00:00Z,26.4679,-82.0631,4.34,1111122 
SCCF RECON,ioos:station:SCCF:11:1,2017-11-08T14:00:00Z,26.4679,-82.0631,4.53,1111122 
SCCF RECON,ioos:station:SCCF:11:1,2017-11-08T15:00:00Z,26.4679,-82.0631,4.92,1111122 
SCCF RECON,ioos:station:SCCF:11:1,2017-11-08T16:00:00Z,26.4679,-82.0631,4.59,1111122 
SCCF RECON,ioos:station:SCCF:11:1,2017-11-08T17:00:00Z,26.4679,-82.0631,4.24,1111122 
SCCF RECON,ioos:station:SCCF:11:1,2017-11-08T18:00:00Z,26.4679,-82.0631,4.89,1111122 
SCCF RECON,ioos:station:SCCF:11:1,2017-11-08T19:00:00Z,26.4679,-82.0631,4.63,1111122 
SCCF RECON,ioos:station:SCCF:11:1,2017-11-08T20:00:00Z,26.4679,-82.0631,4.17,1111122 
SCCF RECON,ioos:station:SCCF:11:1,2017-11-08T21:00:00Z,26.4679,-82.0631,2.97,1111122 
SCCF RECON,ioos:station:SCCF:11:1,2017-11-08T22:00:00Z,26.4679,-82.0631,2.77,1111122 
SCCF RECON,ioos:station:SCCF:11:1,2017-11-09T05:00:00Z,26.4679,-82.0631,2.18,1111122 
SCCF RECON,ioos:station:SCCF:11:1,2017-11-09T06:00:00Z,26.4679,-82.0631,2.06,1111122 
SCCF RECON,ioos:station:SCCF:11:1,2017-11-09T07:00:00Z,26.4679,-82.0631,2.15,1111122 
SCCF RECON,ioos:station:SCCF:11:1,2017-11-09T08:00:00Z,26.4679,-82.0631,1.97,1111122 
SCCF RECON,ioos:station:SCCF:11:1,2017-11-09T09:00:00Z,26.4679,-82.0631,2.13,1111122 
SCCF RECON,ioos:station:SCCF:11:1,2017-11-09T10:00:00Z,26.4679,-82.0631,1.88,1111122 
SCCF RECON,ioos:station:SCCF:11:1,2017-11-09T11:00:00Z,26.4679,-82.0631,2.01,1111122 
SCCF RECON,ioos:station:SCCF:11:1,2017-11-09T12:00:00Z,26.4679,-82.0631,3.13,1111122 
SCCF RECON,ioos:station:SCCF:11:1,2017-11-09T13:00:00Z,26.4679,-82.0631,4.18,1111122 
SCCF RECON,ioos:station:SCCF:11:1,2017-11-09T14:00:00Z,26.4679,-82.0631,4.2,1111122 
SCCF RECON,ioos:station:SCCF:11:1,2017-11-09T15:00:00Z,26.4679,-82.0631,4.6,1111122 
SCCF RECON,ioos:station:SCCF:11:1,2017-11-09T16:00:00Z,26.4679,-82.0631,4.72,1111122 
SCCF RECON,ioos:station:SCCF:11:1,2017-11-09T17:00:00Z,26.4679,-82.0631,4.72,1111122 
SCCF RECON,ioos:station:SCCF:11:1,2017-11-09T18:00:00Z,26.4679,-82.0631,4.02,1111122 
SCCF RECON,ioos:station:SCCF:11:1,2017-11-09T19:00:00Z,26.4679,-82.0631,3.35,1111122 
SCCF RECON,ioos:station:SCCF:11:1,2017-11-09T20:00:00Z,26.4679,-82.0631,3.14,1111122 
SCCF RECON,ioos:station:SCCF:11:1,2017-11-09T21:00:00Z,26.4679,-82.0631,3.07,1111122 
SCCF RECON,ioos:station:SCCF:11:1,2017-11-09T22:00:00Z,26.4679,-82.0631,2.78,1111122 
SCCF RECON,ioos:station:SCCF:11:1,2017-11-10T05:00:00Z,26.4679,-82.0631,2.41,1111122 
SCCF RECON,ioos:station:SCCF:11:1,2017-11-10T06:00:00Z,26.4679,-82.0631,2.53,1111122 
SCCF RECON,ioos:station:SCCF:11:1,2017-11-10T07:00:00Z,26.4679,-82.0631,2.42,1111122 
SCCF RECON,ioos:station:SCCF:11:1,2017-11-10T08:00:00Z,26.4679,-82.0631,2.54,1111122 
SCCF RECON,ioos:station:SCCF:11:1,2017-11-10T09:00:00Z,26.4679,-82.0631,2.12,1111122 
SCCF RECON,ioos:station:SCCF:11:1,2017-11-10T10:00:00Z,26.4679,-82.0631,2.55,1111122 
SCCF RECON,ioos:station:SCCF:11:1,2017-11-10T11:00:00Z,26.4679,-82.0631,2.55,1111122 
SCCF RECON,ioos:station:SCCF:11:1,2017-11-10T12:00:00Z,26.4679,-82.0631,2.08,1111122 
SCCF RECON,ioos:station:SCCF:11:1,2017-11-10T13:00:00Z,26.4679,-82.0631,2.68,1111122 
SCCF RECON,ioos:station:SCCF:11:1,2017-11-10T14:00:00Z,26.4679,-82.0631,3.88,1111122 
SCCF RECON,ioos:station:SCCF:11:1,2017-11-10T15:00:00Z,26.4679,-82.0631,4.28,1111122 
SCCF RECON,ioos:station:SCCF:11:1,2017-11-10T16:00:00Z,26.4679,-82.0631,4.82,1111122 
SCCF RECON,ioos:station:SCCF:11:1,2017-11-10T17:00:00Z,26.4679,-82.0631,5.64,1111122 
SCCF RECON,ioos:station:SCCF:11:1,2017-11-10T18:00:00Z,26.4679,-82.0631,3.93,1111122 
SCCF RECON,ioos:station:SCCF:11:1,2017-11-10T19:00:00Z,26.4679,-82.0631,3.84,1111122 
SCCF RECON,ioos:station:SCCF:11:1,2017-11-10T20:00:00Z,26.4679,-82.0631,3.96,1111122 
SCCF RECON,ioos:station:SCCF:11:1,2017-11-10T21:00:00Z,26.4679,-82.0631,3.72,1111122 
SCCF RECON,ioos:station:SCCF:11:1,2017-11-10T22:00:00Z,26.4679,-82.0631,3.4,1111122 
SCCF RECON,ioos:station:SCCF:11:1,2017-11-11T05:00:00Z,26.4679,-82.0631,3.81,1111122 
SCCF RECON,ioos:station:SCCF:11:1,2017-11-11T06:00:00Z,26.4679,-82.0631,4.79,1111122 
SCCF RECON,ioos:station:SCCF:11:1,2017-11-11T07:00:00Z,26.4679,-82.0631,7.69,1111122 
SCCF RECON,ioos:station:SCCF:11:1,2017-11-11T08:00:00Z,26.4679,-82.0631,4.38,1111122 
SCCF RECON,ioos:station:SCCF:11:1,2017-11-11T09:00:00Z,26.4679,-82.0631,3.99,1111122 
SCCF RECON,ioos:station:SCCF:11:1,2017-11-11T10:00:00Z,26.4679,-82.0631,3.19,1111122 
SCCF RECON,ioos:station:SCCF:11:1,2017-11-11T11:00:00Z,26.4679,-82.0631,3.36,1111122 
SCCF RECON,ioos:station:SCCF:11:1,2017-11-11T12:00:00Z,26.4679,-82.0631,2.94,1111122 
SCCF RECON,ioos:station:SCCF:11:1,2017-11-11T13:00:00Z,26.4679,-82.0631,3.82,1111122 
SCCF RECON,ioos:station:SCCF:11:1,2017-11-11T14:00:00Z,26.4679,-82.0631,3.4,1111122 
SCCF RECON,ioos:station:SCCF:11:1,2017-11-11T15:00:00Z,26.4679,-82.0631,3.63,1111122 
SCCF RECON,ioos:station:SCCF:11:1,2017-11-11T16:00:00Z,26.4679,-82.0631,4.53,1111122 
SCCF RECON,ioos:station:SCCF:11:1,2017-11-11T17:00:00Z,26.4679,-82.0631,5.65,1111122 
SCCF RECON,ioos:station:SCCF:11:1,2017-11-11T18:00:00Z,26.4679,-82.0631,5.51,1111122 
SCCF RECON,ioos:station:SCCF:11:1,2017-11-11T19:00:00Z,26.4679,-82.0631,6.3,1111122 
SCCF RECON,ioos:station:SCCF:11:1,2017-11-11T20:00:00Z,26.4679,-82.0631,5.52,1111122 
SCCF RECON,ioos:station:SCCF:11:1,2017-11-11T21:00:00Z,26.4679,-82.0631,4.37,1111122 
SCCF RECON,ioos:station:SCCF:11:1,2017-11-11T22:00:00Z,26.4679,-82.0631,4.19,1111122 
SCCF RECON,ioos:station:SCCF:11:1,2017-11-12T05:00:00Z,26.4679,-82.0631,4.19,1111122 
SCCF RECON,ioos:station:SCCF:11:1,2017-11-12T06:00:00Z,26.4679,-82.0631,3.9,1111122 
SCCF RECON,ioos:station:SCCF:11:1,2017-11-12T07:00:00Z,26.4679,-82.0631,3.95,1111122 
SCCF RECON,ioos:station:SCCF:11:1,2017-11-12T08:00:00Z,26.4679,-82.0631,4.5,1111122 
SCCF RECON,ioos:station:SCCF:11:1,2017-11-12T09:00:00Z,26.4679,-82.0631,2.95,1111122 
SCCF RECON,ioos:station:SCCF:11:1,2017-11-12T10:00:00Z,26.4679,-82.0631,3.11,1111122 
SCCF RECON,ioos:station:SCCF:11:1,2017-11-12T11:00:00Z,26.4679,-82.0631,2.53,1111122 
SCCF RECON,ioos:station:SCCF:11:1,2017-11-12T12:00:00Z,26.4679,-82.0631,2.44,1111122 
SCCF RECON,ioos:station:SCCF:11:1,2017-11-12T13:00:00Z,26.4679,-82.0631,2.34,1111122 
SCCF RECON,ioos:station:SCCF:11:1,2017-11-12T14:00:00Z,26.4679,-82.0631,3.03,1111122 
SCCF RECON,ioos:station:SCCF:11:1,2017-11-12T15:00:00Z,26.4679,-82.0631,2.95,1111122 
SCCF RECON,ioos:station:SCCF:11:1,2017-11-12T16:00:00Z,26.4679,-82.0631,2.64,1111122 
SCCF RECON,ioos:station:SCCF:11:1,2017-11-12T17:00:00Z,26.4679,-82.0631,3.52,1111122 
SCCF RECON,ioos:station:SCCF:11:1,2017-11-12T18:00:00Z,26.4679,-82.0631,4.88,1111122 
SCCF RECON,ioos:station:SCCF:11:1,2017-11-12T19:00:00Z,26.4679,-82.0631,5.3,1111122 
SCCF RECON,ioos:station:SCCF:11:1,2017-11-12T20:00:00Z,26.4679,-82.0631,5.62,1111122 
SCCF RECON,ioos:station:SCCF:11:1,2017-11-12T21:00:00Z,26.4679,-82.0631,4.82,1111122 
SCCF RECON,ioos:station:SCCF:11:1,2017-11-12T22:00:00Z,26.4679,-82.0631,4.95,1111122 
SCCF RECON,ioos:station:SCCF:11:1,2017-11-13T05:00:00Z,26.4679,-82.0631,3.41,1111122 
SCCF RECON,ioos:station:SCCF:11:1,2017-11-13T06:00:00Z,26.4679,-82.0631,3.52,1111122 
SCCF RECON,ioos:station:SCCF:11:1,2017-11-13T07:00:00Z,26.4679,-82.0631,4.54,1111122 
SCCF RECON,ioos:station:SCCF:11:1,2017-11-13T08:00:00Z,26.4679,-82.0631,4.79,1111122 
SCCF RECON,ioos:station:SCCF:11:1,2017-11-13T09:00:00Z,26.4679,-82.0631,5.16,1111122 
SCCF RECON,ioos:station:SCCF:11:1,2017-11-13T10:00:00Z,26.4679,-82.0631,3.74,1111122 
SCCF RECON,ioos:station:SCCF:11:1,2017-11-13T11:00:00Z,26.4679,-82.0631,3.34,1111122 
SCCF RECON,ioos:station:SCCF:11:1,2017-11-13T12:00:00Z,26.4679,-82.0631,3.16,1111122 
SCCF RECON,ioos:station:SCCF:11:1,2017-11-13T13:00:00Z,26.4679,-82.0631,2.75,1111122 
SCCF RECON,ioos:station:SCCF:11:1,2017-11-13T14:00:00Z,26.4679,-82.0631,2.78,1111122 
SCCF RECON,ioos:station:SCCF:11:1,2017-11-13T15:00:00Z,26.4679,-82.0631,2.92,1111122 
SCCF RECON,ioos:station:SCCF:11:1,2017-11-13T16:00:00Z,26.4679,-82.0631,4.39,1111122 
SCCF RECON,ioos:station:SCCF:11:1,2017-11-13T17:00:00Z,26.4679,-82.0631,3.07,1111122 
SCCF RECON,ioos:station:SCCF:11:1,2017-11-13T18:00:00Z,26.4679,-82.0631,5.12,1111122 
SCCF RECON,ioos:station:SCCF:11:1,2017-11-13T19:00:00Z,26.4679,-82.0631,6.0,1111122 
SCCF RECON,ioos:station:SCCF:11:1,2017-11-13T20:00:00Z,26.4679,-82.0631,5.88,1111122 
SCCF RECON,ioos:station:SCCF:11:1,2017-11-13T21:00:00Z,26.4679,-82.0631,5.55,1111122 
SCCF RECON,ioos:station:SCCF:11:1,2017-11-13T23:00:00Z,26.4679,-82.0631,3.62,1111122 
SCCF RECON,ioos:station:SCCF:11:1,2017-11-14T05:00:00Z,26.4679,-82.0631,4.21,1111122 
SCCF RECON,ioos:station:SCCF:11:1,2017-11-14T06:00:00Z,26.4679,-82.0631,5.74,1111122 
SCCF RECON,ioos:station:SCCF:11:1,2017-11-14T07:00:00Z,26.4679,-82.0631,5.76,1111122 
SCCF RECON,ioos:station:SCCF:11:1,2017-11-14T08:00:00Z,26.4679,-82.0631,6.01,1111122 
SCCF RECON,ioos:station:SCCF:11:1,2017-11-14T09:00:00Z,26.4679,-82.0631,5.38,1111122 
SCCF RECON,ioos:station:SCCF:11:1,2017-11-14T10:00:00Z,26.4679,-82.0631,5.39,1111122 
SCCF RECON,ioos:station:SCCF:11:1,2017-11-14T11:00:00Z,26.4679,-82.0631,5.42,1111122 
SCCF RECON,ioos:station:SCCF:11:1,2017-11-14T12:00:00Z,26.4679,-82.0631,4.32,1111122 
SCCF RECON,ioos:station:SCCF:11:1,2017-11-14T13:00:00Z,26.4679,-82.0631,4.77,1111122 
SCCF RECON,ioos:station:SCCF:11:1,2017-11-14T14:00:00Z,26.4679,-82.0631,3.58,1111122 
SCCF RECON,ioos:station:SCCF:11:1,2017-11-14T15:00:00Z,26.4679,-82.0631,3.66,1111122 
SCCF RECON,ioos:station:SCCF:11:1,2017-11-14T16:00:00Z,26.4679,-82.0631,3.27,1111122 
SCCF RECON,ioos:station:SCCF:11:1,2017-11-14T17:00:00Z,26.4679,-82.0631,3.57,1111122 
SCCF RECON,ioos:station:SCCF:11:1,2017-11-14T18:00:00Z,26.4679,-82.0631,3.71,1111122 
SCCF RECON,ioos:station:SCCF:11:1,2017-11-14T19:00:00Z,26.4679,-82.0631,4.48,1111122 
SCCF RECON,ioos:station:SCCF:11:1,2017-11-14T20:00:00Z,26.4679,-82.0631,5.54,1111122 
SCCF RECON,ioos:station:SCCF:11:1,2017-11-14T21:00:00Z,26.4679,-82.0631,4.23,1111122 
SCCF RECON,ioos:station:SCCF:11:1,2017-11-14T22:00:00Z,26.4679,-82.0631,3.43,1111122 
SCCF RECON,ioos:station:SCCF:11:1,2017-11-15T05:00:00Z,26.4679,-82.0631,3.75,1111122 
SCCF RECON,ioos:station:SCCF:11:1,2017-11-15T06:00:00Z,26.4679,-82.0631,3.81,1111122 
SCCF RECON,ioos:station:SCCF:11:1,2017-11-15T07:00:00Z,26.4679,-82.0631,4.81,1111122 
SCCF RECON,ioos:station:SCCF:11:1,2017-11-15T08:00:00Z,26.4679,-82.0631,5.51,1111122 
SCCF RECON,ioos:station:SCCF:11:1,2017-11-15T09:00:00Z,26.4679,-82.0631,6.18,1111122 
SCCF RECON,ioos:station:SCCF:11:1,2017-11-15T10:00:00Z,26.4679,-82.0631,6.07,1111122 
SCCF RECON,ioos:station:SCCF:11:1,2017-11-15T11:00:00Z,26.4679,-82.0631,7.19,1111122 
SCCF RECON,ioos:station:SCCF:11:1,2017-11-15T12:00:00Z,26.4679,-82.0631,7.88,1111122 
SCCF RECON,ioos:station:SCCF:11:1,2017-11-15T13:00:00Z,26.4679,-82.0631,6.56,1111122 
SCCF RECON,ioos:station:SCCF:11:1,2017-11-15T14:00:00Z,26.4679,-82.0631,5.39,1111122 
SCCF RECON,ioos:station:SCCF:11:1,2017-11-15T15:00:00Z,26.4679,-82.0631,4.21,1111122 
SCCF RECON,ioos:station:SCCF:11:1,2017-11-15T16:00:00Z,26.4679,-82.0631,4.41,1111122 
SCCF RECON,ioos:station:SCCF:11:1,2017-11-15T17:00:00Z,26.4679,-82.0631,3.67,1111122 
SCCF RECON,ioos:station:SCCF:11:1,2017-11-15T18:00:00Z,26.4679,-82.0631,4.42,1111122 
SCCF RECON,ioos:station:SCCF:11:1,2017-11-15T19:00:00Z,26.4679,-82.0631,3.72,1111122 
SCCF RECON,ioos:station:SCCF:11:1,2017-11-15T20:00:00Z,26.4679,-82.0631,3.86,1111122 
SCCF RECON,ioos:station:SCCF:11:1,2017-11-15T21:00:00Z,26.4679,-82.0631,4.52,1111122 
SCCF RECON,ioos:station:SCCF:11:1,2017-11-15T22:00:00Z,26.4679,-82.0631,3.72,1111122 
SCCF RECON,ioos:station:SCCF:11:1,2017-11-16T05:00:00Z,26.4679,-82.0631,3.74,1111122 
SCCF RECON,ioos:station:SCCF:11:1,2017-11-16T06:00:00Z,26.4679,-82.0631,3.3,1111122 
SCCF RECON,ioos:station:SCCF:11:1,2017-11-16T07:00:00Z,26.4679,-82.0631,4.3,1111122 
SCCF RECON,ioos:station:SCCF:11:1,2017-11-16T08:00:00Z,26.4679,-82.0631,4.59,1111122 
SCCF RECON,ioos:station:SCCF:11:1,2017-11-16T09:00:00Z,26.4679,-82.0631,4.52,1111122 
SCCF RECON,ioos:station:SCCF:11:1,2017-11-16T10:00:00Z,26.4679,-82.0631,5.28,1111122 
SCCF RECON,ioos:station:SCCF:11:1,2017-11-16T11:00:00Z,26.4679,-82.0631,5.08,1111122 